Spokane Felts, WA

5:00 PM PDT on May 25, 2017 (GMT -0700)
Felts

Weather History for KSFF - October, 2013

Change the Weather History Date:

Saturday, October 26, 2013

  Actual Average Record
Temperature  
Mean Temperature 46 °F 44 °F  
Max Temperature 54 °F 54 °F 60 °F (1997)
Min Temperature 38 °F 34 °F 21 °F (2002)
Degree Days  
Heating Degree Days 19 21  
Month to date heating degree days 442 416  
Since 1 July heating degree days 576 627  
Cooling Degree Days 0 0  
Month to date cooling degree days 0 0  
Year to date cooling degree days 704 406  
Moisture  
Dew Point 39 °F    
Average Humidity 86    
Maximum Humidity 100    
Minimum Humidity 71    
Precipitation  
Precipitation 0.00 in 0.06 in 0.47 in (2016)
Month to date precipitation 0.12 1.10  
Year to date precipitation 11.80 12.68  
Sea Level Pressure  
Sea Level Pressure 30.23 in    
Wind  
Wind Speed 3 mph (ENE)    
Max Wind Speed 12 mph    
Max Gust Speed 15 mph    
Visibility 4 miles    
Events Fog    
T = Trace of Precipitation, MM = Missing Value Source: NWS Daily Summary

Daily Weather History Graph

Daily Weather History Graph

Search for Another Location

Airport or City:

Trip Planner

Search our weather history database for the weather conditions in past years. The results will help you decide how hot, cold, wet, or windy it might be!

Date:

Astronomy

Oct. 26, 2013 Rise Set
Actual Time 7:24 AM PDT 5:40 PM PDT
Civil Twilight 6:53 AM PDT 6:12 PM PDT
Nautical Twilight 6:16 AM PDT 6:48 PM PDT
Astronomical Twilight 5:41 AM PDT 7:24 PM PDT
Moon 11:59 PM PDT 1:46 PM PDT
Length of Visible Light 11h 19m
Length of Day
10h 15m
Waning Gibbous, 52% of the Moon is Illuminated
Oct 26
Waning Gibbous
Oct 26
Last Quarter
Nov 3
New
Nov 9
First Quarter
Nov 17
Full

Hourly Weather History & Observations

Time (PDT) Temp. Windchill Dew Point Humidity Pressure Visibility Wind Dir Wind Speed Gust Speed Precip Events Conditions
12:02 AM 37.4 °F 33.8 °F 37.4 °F 100% 30.29 in 0.8 mi ENE 4.6 mph - N/A   Mostly Cloudy
12:09 AM 39.2 °F 37.0 °F 37.4 °F 93% 30.29 in 0.5 mi ENE 3.5 mph - N/A Fog Fog
12:13 AM 39.2 °F 37.0 °F 37.4 °F 93% 30.29 in 1.0 mi NE 3.5 mph - N/A   Mostly Cloudy
12:26 AM 41.0 °F - 39.2 °F 93% 30.29 in 0.8 mi Calm Calm - N/A   Mist
12:35 AM 41.0 °F 39.0 °F 39.2 °F 93% 30.29 in 0.5 mi Variable 3.5 mph - N/A Fog Fog
12:53 AM 41.0 °F 38.0 °F 39.9 °F 96% 30.31 in 0.5 mi ENE 4.6 mph - N/A Fog Fog
1:19 AM 41.0 °F 36.4 °F 39.2 °F 93% 30.30 in 1.0 mi East 6.9 mph - N/A   Overcast
1:26 AM 41.0 °F 39.0 °F 39.2 °F 93% 30.30 in 3.0 mi East 3.5 mph - N/A   Overcast
1:36 AM 41.0 °F 39.0 °F 39.2 °F 93% 30.30 in 1.8 mi NE 3.5 mph - N/A   Overcast
1:53 AM 41.0 °F 39.0 °F 39.9 °F 96% 30.32 in 1.0 mi Variable 3.5 mph - N/A   Overcast
2:53 AM 42.1 °F 37.1 °F 39.9 °F 92% 30.31 in 1.2 mi East 8.1 mph - N/A   Overcast
3:53 AM 42.1 °F 36.1 °F 39.9 °F 92% 30.30 in 1.2 mi East 10.4 mph - N/A   Overcast
4:53 AM 41.0 °F 37.1 °F 39.9 °F 96% 30.31 in 2.5 mi ENE 5.8 mph - N/A   Overcast
5:44 AM 39.2 °F 37.0 °F 39.2 °F 100% 30.30 in 3.0 mi ENE 3.5 mph - N/A   Overcast
5:53 AM 39.9 °F 36.7 °F 39.0 °F 97% 30.32 in 3.0 mi ENE 4.6 mph - N/A   Overcast
6:53 AM 41.0 °F 39.0 °F 39.9 °F 96% 30.34 in 2.5 mi ENE 3.5 mph - N/A   Overcast
7:53 AM 41.0 °F 36.4 °F 39.9 °F 96% 30.34 in 2.5 mi ENE 6.9 mph - N/A   Overcast
8:53 AM 42.1 °F - 39.9 °F 92% 30.36 in 2.5 mi Calm Calm - N/A   Overcast
9:18 AM 42.8 °F - 39.2 °F 87% 30.33 in 6.0 mi Calm Calm - N/A   Overcast
9:53 AM 42.1 °F 40.2 °F 39.0 °F 89% 30.36 in 8.0 mi ENE 3.5 mph - N/A   Overcast
10:53 AM 43.0 °F - 39.9 °F 89% 30.36 in 7.0 mi Calm Calm - N/A   Overcast
11:13 AM 42.8 °F - 39.2 °F 87% 30.32 in 9.0 mi Calm Calm - N/A   Overcast
11:53 AM 46.0 °F - 41.0 °F 83% 30.34 in 6.0 mi Calm Calm - N/A   Haze
12:49 PM 46.4 °F 44.3 °F 41.0 °F 81% 30.30 in 10.0 mi East 4.6 mph - N/A   Overcast
12:53 PM 48.0 °F - 41.0 °F 77% 30.32 in 10.0 mi Calm Calm - N/A   Overcast
1:16 PM 48.2 °F - 41.0 °F 76% 30.29 in 10.0 mi Calm Calm - N/A   Partly Cloudy
1:53 PM 50.0 °F - 42.1 °F 74% 30.29 in 10.0 mi Calm Calm - N/A   Clear
2:53 PM 52.0 °F - 42.1 °F 69% 30.27 in 10.0 mi SW 3.5 mph - N/A   Clear
3:53 PM 51.1 °F - 42.1 °F 71% 30.25 in 10.0 mi SW 3.5 mph - N/A   Clear
4:53 PM 52.0 °F - 43.0 °F 71% 30.22 in 9.0 mi Calm Calm - N/A   Clear
5:53 PM 46.0 °F - 39.9 °F 79% 30.21 in 8.0 mi Calm Calm - N/A   Clear
6:53 PM 43.0 °F - 41.0 °F 93% 30.21 in 9.0 mi Calm Calm - N/A   Clear
7:53 PM 41.0 °F - 39.0 °F 93% 30.19 in 4.0 mi Calm Calm - N/A   Clear
8:29 PM 39.2 °F - 37.4 °F 93% 30.14 in 2.0 mi Calm Calm - N/A   Clear
8:36 PM 41.0 °F - 39.2 °F 93% 30.14 in 4.0 mi Calm Calm - N/A   Clear
8:50 PM 39.2 °F - 39.2 °F 100% 30.13 in 2.0 mi Calm Calm - N/A   Partly Cloudy
8:53 PM 39.9 °F - 39.0 °F 97% 30.16 in 1.8 mi Calm Calm - N/A   Partly Cloudy
9:00 PM 39.2 °F - 37.4 °F 93% 30.13 in 0.8 mi Calm Calm - N/A   Mist
9:09 PM 39.2 °F - 39.2 °F 100% 30.13 in 0.5 mi Calm Calm - N/A Fog Fog
9:13 PM 39.2 °F - 39.2 °F 100% 30.13 in 1.0 mi Calm Calm - N/A   Mist
9:21 PM 39.2 °F - 39.2 °F 100% 30.13 in 0.5 mi Calm Calm - N/A Fog Fog
9:30 PM 39.2 °F 37.0 °F 39.2 °F 100% 30.12 in 1.0 mi NE 3.5 mph - N/A   Mist
9:37 PM 41.0 °F 38.0 °F 39.2 °F 93% 30.12 in 2.0 mi NE 4.6 mph - N/A   Partly Cloudy
9:53 PM 41.0 °F - 39.0 °F 93% 30.14 in 3.0 mi Calm Calm - N/A   Clear
9:58 PM 41.0 °F - 39.2 °F 93% 30.11 in 2.5 mi Calm Calm - N/A   Partly Cloudy
10:10 PM 39.2 °F - 39.2 °F 100% 30.11 in 4.0 mi Calm Calm - N/A   Scattered Clouds
10:16 PM 39.2 °F - 37.4 °F 93% 30.11 in 2.5 mi Calm Calm - N/A   Mostly Cloudy
10:35 PM 39.2 °F 35.0 °F 37.4 °F 93% 30.09 in 1.8 mi ENE 5.8 mph - N/A   Scattered Clouds
10:53 PM 39.9 °F 36.7 °F 37.9 °F 93% 30.11 in 2.0 mi NE 4.6 mph - N/A   Mostly Cloudy
11:00 PM 39.2 °F 35.9 °F 37.4 °F 93% 30.09 in 0.8 mi ENE 4.6 mph - N/A   Mostly Cloudy
11:10 PM 39.2 °F - 39.2 °F 100% 30.09 in 0.5 mi Calm Calm - N/A Fog Fog
11:18 PM 39.2 °F - 39.2 °F 100% 30.09 in 0.2 mi Calm Calm - N/A Fog Fog
11:53 PM 39.0 °F 36.8 °F 37.9 °F 96% 30.11 in 0.2 mi SE 3.5 mph - N/A Fog Fog